Weather Roundup
Issued by NWS

Home | Current Version | Previous Version | Graphics & Text | Print | Product List | Glossary Off
Versions: 1 2 3 4 5 6 7 8 9 10 11 12 13 14 15 16 17 18 19 20 21 22 23 24 25 26 27 28 29 30 31 32 33 34 35 36 37 38 39 40 41 42 43 44 45 46 47 48 49 50

474
NZUS93 KARX 201259
HRRWXR

CURRENT HOURLY OBSERVATIONS ACROSS
MUCH OF THE UPPER MISSISSIPPI VALLEY
NATIONAL WEATHER SERVICE LA CROSSE WI
700 AM CST MON FEB 20 2017


...SOUTHEAST MINNESOTA...


CITY           SKY/WX    TMP DP  RH WIND       PRES   REMARKS
ROCHESTER      CLOUDY    47  45  93 SE15      29.89F
ROCHESTER/MAYO FAIR      50  46  87 SE7       29.89S
WINONA         MOCLDY    46  41  81 CALM      29.93F
AUSTIN         CLOUDY    48  45  87 S8        29.88R
ALBERT LEA     CLOUDY    48  45  87 S10       29.86S
DODGE CENTER   NOT AVBL
PRESTON        CLOUDY    47  44  87 SE9       29.91F
OWATONNA       CLOUDY    50  45  81 SE18G24   29.84F
FARIBAULT      CLOUDY    52  46  82 SE10      29.85S
$$

...ELSEWHERE IN MINNESOTA...


CITY           SKY/WX    TMP DP  RH WIND       PRES   REMARKS
MINNEAPOLIS    CLOUDY    51  43  74 VRB7      29.82F
INTNL FALLS    CLOUDY    43  35  73 SE12      29.76F
DULUTH         CLOUDY    40  33  76 SE16      29.86F WCI  31
RED WING       MOCLDY    54  45  71 SE9       29.86F
REDWOOD FALLS  CLOUDY    49  45  86 SE14      29.72F
MANKATO          N/A     50  45  83 SE16      29.80F
WORTHINGTON    RAIN      52  51  97 S21       29.73F FOG
FAIRMONT       CLOUDY    51  47  86 S17       29.78F
$$

...SOUTHWEST WISCONSIN...


CITY           SKY/WX    TMP DP  RH WIND       PRES   REMARKS
LA CROSSE      CLOUDY    53  45  74 SE9       29.95S
PRAIRIE DU CHI MOCLDY    48  43  81 E10       29.98F
BOSCOBEL       CLOUDY    49  43  80 VRB3      30.01R
LONE ROCK      NOT AVBL
PLATTEVILLE    PTCLDY    43  43 100 E12       30.01F
FORT MC COY    CLOUDY    49  44  83 CALM      30.00S
MAUSTON-NEW LI PTSUNNY   42  37  79 SE5       30.02S
VIROQUA        FAIR      47  43  87 SE14      29.98S
WIS DELLS      CLOUDY    47  40  78 SE5       30.04S
$$

...ELSEWHERE IN WISCONSIN...


CITY           SKY/WX    TMP DP  RH WIND       PRES   REMARKS
MILWAUKEE      CLOUDY    37  31  78 SE3       30.14R
MADISON        MOCLDY    44  40  85 SE5       30.06S
GREEN BAY      CLOUDY    39  32  76 SE6       30.14R WCI  35
EAU CLAIRE     NOT AVBL
BLACK RVR FLS  FAIR      43  36  75 E3        29.98S
MEDFORD        MOCLDY    38  31  76 SE9       30.00F WCI  32
WAUSAU         PTCLDY    37  29  72 E12       30.05S WCI  29
WIS RAPIDS     CLOUDY    43  35  73 SE7       30.05S
MARSHFIELD     MOCLDY    40  33  76 E9        30.01S WCI  34
RICE LAKE      CLOUDY    44  36  73 SE16      29.92F
$$

...NORTHEAST IOWA...


CITY           SKY/WX    TMP DP  RH WIND       PRES   REMARKS
WATERLOO       CLOUDY    52  48  86 SE14      29.89F
DUBUQUE        CLOUDY    46  45  96 SE12      30.00S FOG
DECORAH        CLOUDY    48  45  87 SE14G21   29.92F
MASON CITY     CLOUDY    46  44  93 SE10      29.87F
CHARLES CITY   CLOUDY    48  48 100 SE13      29.90S
OELWEIN        MOCLDY    48  48 100 SE16      29.92F FOG
$$

...ELSEWHERE IN IOWA...


CITY           SKY/WX    TMP DP  RH WIND       PRES   REMARKS
DES MOINES     LGT RAIN  58  55  90 SE12      29.84S FOG
IOWA CITY      CLOUDY    50  48  93 SE7       29.97F
FORT DODGE     CLOUDY    52  46  82 SE3       29.83S THUNDER
MARSHALLTOWN   CLOUDY    51  48  89 SE13      29.86F
CEDAR RAPIDS   CLOUDY    51  50  96 SE10      29.93F FOG
$$

...NORTHERN ILLINOIS...


CITY           SKY/WX    TMP DP  RH WIND       PRES   REMARKS
CHICAGO-OHARE  CLOUDY    44  42  93 SE8       30.13R FOG
CHICAGO-MIDWAY MOCLDY    49  43  80 SE8       30.14R FOG
MOLINE         CLOUDY    52  49  89 SE9       30.00F FOG
ROCKFORD       CLOUDY    45  43  93 SE13      30.09F FOG
PEORIA         FOG       48  48 100 SE7       30.07S VSB 1/4
$$

NOTE: "FAIR" INDICATES FEW OR NO CLOUDS BELOW 12,000 FEET WITH NO
SIGNIFICANT WEATHER AND/OR OBSTRUCTIONS TO VISIBILITY. WIND
SPEEDS ARE IN MILES-PER-HOUR.




USA.gov is the U.S. government's official web portal to all federal, state and local government web resources and services.